Regional Weather Roundup
Issued by NWS

Home | Current Version | Previous Version | Graphics & Text | Print | Product List | Glossary On
Versions: 1 2 3 4 5 6 7 8 9 10 11 12 13 14 15 16 17 18 19 20 21 22 23 24 25 26 27 28 29 30 31 32 33 34 35 36 37 38 39 40 41 42 43 44 45 46 47 48 49 50
000
ASUS43 KIND 242009
RWRIN

WEATHER ROUNDUP FOR INDIANA
NATIONAL WEATHER SERVICE INDIANAPOLIS IN
400 PM EDT SAT SEP 24 2016

NOTE: "FAIR" INDICATES FEW OR NO CLOUDS BELOW 12,000 FEET WITH NO
SIGNIFICANT WEATHER AND/OR OBSTRUCTIONS TO VISIBILITY.

* - STATION DOES NOT REPORT WEATHER SUCH AS PRECIPITATION OR FOG.

+ - STATION NOT QUALITY CONTROLLED BY THE NATIONAL WEATHER SERVICE.
    USE DATA WITH CAUTION...ESPECIALLY DEWPOINT AND RELATIVE
    HUMIDITY OBSERVATIONS.

INZ001>003-010>013-019-020-242100-
NORTHWEST INDIANA

CITY           SKY/WX    TMP DP  RH WIND       PRES   REMARKS
GARY /AIRPORT/ MOSUNNY   75  66  73 NE16      30.16F
KNOX *+        MOSUNNY   77  41  27 E6        30.15F VSB 3/4
LA PORTE +     PTSUNNY   79  64  60 SE7       30.16F
MICHIGAN CITY+ CLOUDY    75  63  64 MISG      30.16F
MONTICELLO +   SUNNY     78  61  55 E6        30.13F
RENSSELAER +   SUNNY     82  64  54 NE7       30.13F
VALPARAISO     PTSUNNY   78  64  61 E6        30.15S

$$

LMZ046-743>745-242100-
SOUTHERN LAKE MICHIGAN

STATION/POSITION TIME  TEMP    WIND        PRES    WAVE
                       AIR SEA DIR/SP/G            HT
                 (UTC) (F)     (DEG/KT/KT) (MB)    (FT)
BURNS HARBOR     1908   70      40/ 12/ 13 1021.7F
MICHIGAN CITY    1900   68      10/ 14/ 16   N/A
5NW MICH CITY    2000   70 71   40/ 14/ 17   N/A     3

$$

INZ004-005-014>016-021>024-242100-
NORTH CENTRAL INDIANA

CITY           SKY/WX    TMP DP  RH WIND       PRES   REMARKS
ELKHART        MOSUNNY  N/A N/A N/A E9        30.17F
GOSHEN         MOSUNNY   76  60  57 E8        30.17F
LOGANSPORT +   SUNNY     77  64  65 SE8       30.15F
PERU/GRISSOM   MOSUNNY   75  65  70 E8        30.14F
ROCHESTER +    SUNNY     79  66  65 SE6       30.15F
SOUTH BEND     SUNNY     74  63  68 E7        30.17F
WARSAW +       PTSUNNY   73  59  60 E7        30.17S

$$

INZ006>009-017-018-025>027-242100-
NORTHEAST INDIANA

CITY           SKY/WX    TMP DP  RH WIND       PRES   REMARKS
ANGOLA *+      SUNNY     73  66  78 CALM      30.19S
AUBURN +       PTSUNNY   73  57  56 E8        30.18F
FORT WAYNE     CLOUDY    74  61  63 NE12      30.17F
HUNTINGTON +   PTSUNNY  N/A N/A N/A E5        30.16F
KENDALLVILLE + MOSUNNY   74  57  55 E6        30.18F

$$

INZ028-029-035-036-043>045-051>053-242100-
WEST CENTRAL INDIANA

CITY           SKY/WX    TMP DP  RH WIND       PRES   REMARKS
CRAWFORDSVL +  SUNNY     81  67  62 E3        30.12F
GREENCASTLE +  SUNNY     82  72  69 E6        30.11F
LAFAYETTE      SUNNY     78  68  71 E9        30.11F
TERRE HAUTE    CLOUDY    87  65  47 VRB3      30.09F

$$

INZ030>032-037>040-046>048-054>057-064-065-242100-
CENTRAL INDIANA

CITY           SKY/WX    TMP DP  RH WIND       PRES   REMARKS
ANDERSON       PTSUNNY   73  64  73 N6        30.16F
COLUMBUS       MOSUNNY   84  70  61 CALM      30.11F
FISHERS *+     MOSUNNY   81  70  69 NE5       30.13
GREENWOOD *+   SUNNY     82  68  61 NE6       30.12F
INDIANAPOLIS   MOSUNNY   82  67  60 E5        30.11F
-EAGLE CREEK   SUNNY     81  68  64 E5        30.12F
MARION +       PTSUNNY   73  64  72 E3        30.16F
MT COMFORT *+  MOSUNNY   81  66  61 NE3       30.13F
SHELBYVILLE    MOSUNNY   85  65  51 NE6       30.11F
ZIONSVILLE +   SUNNY     77  67  71 E5        30.15F

$$

INZ033-034-041-042-049-050-058-059-242100-
EAST CENTRAL INDIANA

CITY           SKY/WX    TMP DP  RH WIND       PRES   REMARKS
MUNCIE         MOSUNNY   78  65  63 VRB5      30.15F

$$

INZ060-061-067>069-081>083-085>088-242100-
SOUTHWEST INDIANA

CITY           SKY/WX    TMP DP  RH WIND       PRES   REMARKS
EVANSVILLE     MOSUNNY   91  64  40 NW6       30.07F
HUNTINGBURG *+   N/A     88  64  45 CALM      30.08F
WASHINGTON +   SUNNY     89  65  45 MISG      30.07F

$$

INZ062-063-066-070>080-084-089>092-242100-
SOUTH CENTRAL AND SOUTHEAST INDIANA

CITY           SKY/WX    TMP DP  RH WIND       PRES   REMARKS
BEDFORD +      MOSUNNY  N/A N/A N/A N3        30.09F
BLOOMINGTON    PTSUNNY   84  66  54 NE6       30.10F
MADISON *+     MOSUNNY   88  61  40 N3        30.12F
NORTH VERNON + MOSUNNY   84  73  70 CALM      30.11F
SEYMOUR +      PTSUNNY   88  64  45 N3        30.09F

$$





USA.gov is the U.S. government's official web portal to all federal, state and local government web resources and services.